Location: ??????
(38.0677°N, 22.9870°E)
Time: 17:37:11
(UTC+00:00)

SL-16 R/B - Pass Details

Date: 23 May 2024
Orbit: 842 x 845 km, 71.0° (Epoch: 23 June)

Event Time Altitude Azimuth Distance (km) Brightness Sun altitude
Rises 01:40:04 0° 324° (NW) 3,410 5.4 -15.5°
Reaches altitude 10° 01:42:55 10° 311° (NW) 2,470 4.6 -15.1°
Maximum altitude 01:47:23 24° 259° (WSW) 1,664 3.3 -14.5°
Enters shadow 01:49:14 21° 231° (SW) 1,824 3.3 -14.2°
